Wind_Speed
7 8 10 11 12 12 13 13 14 15 15 16 16 18 19 20 20 21 22 23 24 24 25 24 22 23 24 25 25 25 26 26 27 28 28 27 29 29 27 26 26 25 25 25
8 9 10 10 11 12 13 13 14 14 16 18 17 17 18 20 21 22 22 22 23 24 24 22 21 22 24 24 25 26 26 28 29 29 28 28 28 29 26 23 23 23 24 24
8 8 9 10 11 12 13 14 15 15 17 19 20 19 20 20 21 22 22 23 22 22 23 22 21 22 23 24 25 25 27 27 28 28 28 27 27 26 25 23 23 23 24 24
9 9 10 11 13 13 14 14 15 16 17 19 20 21 20 20 20 21 22 22 22 22 22 23 23 23 24 25 26 27 27 27 27 27 28 28 26 25 25 23 23 23 23 24
10 11 11 12 13 14 13 14 15 17 18 19 20 21 20 20 20 20 21 21 22 23 24 23 23 23 24 26 27 27 27 27 27 27 27 26 25 25 25 24 23 22 22 23
11 12 12 13 14 14 14 16 16 17 18 19 19 20 20 21 21 20 20 20 21 22 22 22 23 24 25 26 27 27 28 27 26 26 26 25 25 24 24 23 22 21 21 22
11 12 13 12 13 14 15 16 18 18 17 17 18 20 20 20 20 19 20 21 21 21 22 23 24 24 24 25 26 26 26 26 26 25 25 24 25 24 23 22 21 21 20 20
12 12 13 13 13 14 15 16 17 18 18 17 17 19 19 19 18 20 20 20 21 22 23 24 25 24 24 24 24 25 26 25 24 24 24 24 22 21 21 21 21 20 19 19
12 12 13 14 14 15 16 16 16 18 18 18 18 18 17 18 19 20 21 21 22 22 22 23 24 24 24 24 25 25 24 23 23 23 23 22 20 20 19 20 21 21 20 20
13 13 14 14 15 15 15 16 16 17 18 19 18 18 18 18 19 20 20 20 21 21 22 23 23 24 23 24 25 24 23 23 22 22 21 21 20 19 19 20 20 21 21 20
13 13 14 15 15 15 15 15 16 17 18 20 20 18 18 19 19 19 20 21 21 22 22 23 24 23 23 23 24 23 22 21 21 20 19 19 18 17 18 18 19 19 19 19
14 14 14 14 14 14 15 17 18 18 18 19 20 19 19 19 19 19 20 21 22 23 24 23 23 22 21 22 22 21 20 19 18 18 17 17 17 18 17 17 18 17 17 18
15 15 15 14 14 15 15 16 17 18 19 20 20 19 19 19 19 20 20 21 21 22 22 22 21 21 20 20 20 19 19 18 17 16 15 16 17 18 17 17 16 16 16 17
15 15 15 14 14 15 15 15 16 17 19 19 19 18 18 19 20 20 20 21 21 21 21 20 20 19 20 20 18 18 17 16 15 14 14 15 17 18 18 17 15 15 15 17
15 15 15 14 14 15 15 16 16 17 19 19 19 18 18 19 20 20 20 21 21 20 19 19 18 18 19 18 17 16 15 14 14 14 14 15 16 17 17 16 15 15 16 17
15 15 15 15 15 15 16 17 17 18 18 18 18 18 18 19 19 19 19 20 19 19 19 18 17 17 18 17 15 14 13 13 13 13 14 15 15 15 16 16 16 16 16 17
16 16 16 16 16 17 17 18 18 18 17 18 18 17 18 18 18 19 19 19 19 19 19 18 17 17 17 15 14 13 13 13 13 14 14 14 14 15 16 16 15 15 16 17
17 17 18 17 17 17 17 18 19 19 18 18 19 18 18 19 19 20 20 20 18 18 18 18 17 17 16 14 13 13 14 13 14 14 14 14 14 15 15 14 14 15 16 17
18 18 18 18 18 18 18 18 19 19 19 19 19 18 18 18 19 19 20 20 18 18 18 17 17 16 16 14 13 13 14 14 14 14 14 15 14 15 15 14 14 15 16 17
19 19 19 19 19 19 19 19 20 20 20 20 20 19 18 18 18 18 18 18 18 17 17 17 16 15 15 14 13 14 14 13 13 14 14 14 14 14 15 15 15 16 17 18
20 19 19 19 19 19 19 20 20 21 21 21 20 19 18 18 18 17 17 17 17 16 16 15 15 15 15 14 13 13 13 13 13 14 14 14 15 15 15 15 16 17 18 19
20 20 20 20 20 20 20 20 21 21 21 20 19 18 18 18 18 17 17 17 16 16 15 14 14 14 14 15 14 13 13 13 14 14 14 14 14 15 15 16 17 18 19 19
21 20 21 21 21 21 21 21 21 21 20 20 19 18 18 18 18 17 16 16 16 15 13 13 13 14 14 15 13 13 13 13 14 14 14 14 15 16 16 17 18 19 19 20
22 22 22 21 21 22 22 22 22 21 20 20 20 20 18 17 16 16 15 15 15 14 13 13 13 13 14 14 13 13 13 13 14 13 14 14 15 16 17 18 19 20 20 21
23 23 23 22 22 22 22 23 23 22 21 21 22 20 18 16 15 15 15 14 14 13 12 12 12 13 13 13 13 13 13 13 13 13 14 15 16 17 18 19 20 21 21 21
24 24 24 24 23 23 23 23 23 23 22 22 21 19 17 16 16 15 14 14 13 12 12 13 13 13 13 13 12 12 13 13 13 14 14 16 16 18 19 19 20 21 21 21
Wind_Direction
275 279 278 279 277 277 278 279 275 275 277 278 279 279 280 282 283 284 286 287 290 293 296 295 295 296 298 298 297 297 298 297 297 297 298 299 300 299 297 297 300 297 291 289
285 285 287 283 282 282 283 282 284 282 281 284 285 287 288 287 285 286 287 288 292 293 293 292 294 296 297 298 297 298 298 299 299 298 298 298 300 299 298 299 300 298 293 290
293 297 295 288 284 286 286 289 289 289 288 288 288 290 292 290 289 290 292 293 293 293 293 293 293 292 294 295 295 298 298 298 299 299 299 299 300 300 300 298 297 295 294 292
306 304 300 297 293 288 287 290 292 293 293 293 294 294 296 294 294 294 294 295 295 294 294 294 295 296 296 297 296 297 300 300 298 298 301 302 302 301 299 296 296 295 295 293
311 310 307 303 300 296 300 300 298 298 298 297 297 297 299 299 300 299 296 295 295 293 294 294 294 295 297 299 299 299 298 298 298 298 301 303 302 302 300 295 294 293 293 294
313 312 311 309 307 305 305 306 306 304 302 300 301 301 302 304 303 304 301 298 296 295 295 295 296 296 297 299 300 300 299 299 299 299 300 302 302 301 300 297 296 296 294 295
321 317 314 311 309 308 307 307 309 311 308 308 308 306 307 309 307 307 307 303 300 297 296 296 300 300 300 302 302 301 300 301 299 298 298 298 299 298 297 299 299 297 297 298
323 322 320 316 313 311 312 314 315 317 314 311 312 313 314 313 311 310 309 307 305 303 302 300 303 303 303 303 304 304 302 301 301 300 298 298 299 297 297 298 300 301 302 303
323 322 322 320 320 319 318 318 322 322 320 317 317 318 316 316 314 314 312 308 308 306 304 303 304 304 306 307 306 306 304 302 301 301 300 300 301 300 299 301 302 304 306 305
321 320 323 322 321 323 325 326 326 325 323 322 324 323 320 319 316 315 312 311 308 307 306 306 307 307 308 309 310 309 308 306 303 302 302 302 301 304 304 304 304 306 307 306
320 319 321 320 321 325 327 327 327 327 326 326 327 329 325 323 319 317 315 314 311 309 310 310 311 312 312 313 314 313 311 308 306 305 304 305 308 308 307 307 306 308 309 309
317 318 320 321 321 323 324 324 326 327 328 326 326 331 329 328 325 324 321 317 314 313 313 313 312 313 313 314 316 317 315 312 309 307 306 307 310 312 312 311 309 310 309 310
317 318 321 323 323 323 322 322 323 324 325 325 324 326 327 326 327 324 322 321 319 318 317 316 315 314 316 317 317 318 317 316 313 310 308 309 311 315 315 313 313 314 313 315
318 320 322 324 325 324 322 321 323 321 321 322 323 323 323 325 325 322 322 322 321 322 322 320 319 319 320 320 319 319 318 319 319 316 314 314 314 316 319 317 317 317 316 317
318 320 320 320 320 320 320 321 321 321 319 318 322 322 322 321 322 322 323 325 326 325 326 328 327 324 324 323 321 323 321 322 323 320 320 319 320 322 322 321 319 320 320 319
317 319 317 315 314 313 313 315 318 320 318 318 319 319 320 318 319 321 323 326 328 327 327 328 329 328 327 327 326 327 328 327 326 325 324 324 325 327 326 323 322 321 323 323
314 314 313 312 311 309 309 312 315 317 318 318 319 320 320 321 323 323 322 324 326 326 326 327 328 329 330 328 330 335 336 335 333 330 328 327 327 327 328 326 326 325 325 327
314 313 313 313 311 311 312 311 313 316 318 318 318 319 320 322 323 324 323 323 325 326 328 329 331 330 331 330 330 334 336 334 333 333 333 330 329 329 330 330 330 330 331 332
313 314 313 314 313 312 311 312 313 313 315 317 320 318 316 317 321 323 322 323 324 326 329 331 333 335 334 332 331 334 334 333 335 336 337 337 335 336 334 332 330 333 336 338
311 311 311 312 313 314 313 313 314 315 315 316 319 317 316 315 318 322 323 324 325 327 330 332 334 337 337 336 333 333 335 338 339 338 338 340 339 337 336 336 336 336 338 340
309 310 309 309 310 313 312 313 313 313 316 317 318 318 316 316 320 325 324 323 324 327 329 333 338 340 340 339 336 337 339 342 343 340 339 339 339 338 339 340 338 337 339 340
307 308 307 306 308 309 311 312 314 314 315 318 318 318 317 317 319 323 323 322 324 325 327 330 335 338 339 340 339 341 344 345 346 344 343 343 344 344 344 342 340 339 339 339
304 304 305 305 306 306 308 310 311 312 314 316 317 317 317 315 315 317 320 322 323 324 327 328 331 334 336 337 338 339 342 344 344 345 345 346 346 346 345 342 340 339 339 338
300 301 302 302 303 303 305 307 309 310 311 310 311 313 314 315 314 315 318 322 323 322 323 325 330 334 335 335 337 341 342 342 343 345 345 345 345 346 344 342 340 339 339 339
299 300 300 301 301 300 302 304 305 307 307 305 306 308 309 310 309 310 314 318 321 322 323 324 328 332 334 335 336 338 339 342 342 343 344 344 345 344 343 341 340 340 340 340
296 296 297 297 297 297 298 299 300 301 303 303 303 305 305 305 306 305 308 312 315 318 320 322 326 329 330 331 332 333 335 338 339 340 342 343 344 343 343 343 342 342 342 342
Height
5849 5849 5848 5848 5848 5848 5847 5847 5846 5845 5844 5843 5842 5842 5841 5840 5839 5838 5836 5835 5833 5831 5829 5826 5824 5822 5820 5818 5816 5813 5810 5808 5806 5803 5800 5797 5795 5792 5789 5787 5785 5783 5781 5780
5849 5847 5847 5846 5846 5845 5845 5844 5844 5843 5841 5840 5839 5838 5837 5836 5835 5833 5832 5830 5828 5826 5823 5821 5819 5817 5815 5813 5811 5808 5805 5803 5800 5797 5794 5791 5789 5786 5783 5781 5779 5777 5775 5774
5847 5847 5845 5844 5844 5843 5842 5842 5841 5840 5839 5837 5835 5834 5832 5830 5829 5828 5827 5825 5823 5821 5819 5816 5814 5812 5810 5808 5806 5803 5800 5797 5794 5791 5788 5786 5783 5781 5778 5775 5773 5771 5769 5767
5846 5844 5843 5842 5841 5840 5839 5839 5838 5836 5835 5834 5833 5830 5829 5826 5824 5823 5821 5819 5818 5816 5813 5811 5809 5807 5805 5803 5800 5797 5794 5791 5788 5785 5783 5780 5777 5775 5772 5769 5768 5765 5763 5761
5844 5843 5841 5840 5839 5837 5837 5836 5834 5833 5832 5830 5829 5826 5825 5822 5820 5818 5816 5814 5812 5810 5808 5806 5804 5802 5800 5797 5794 5791 5788 5785 5782 5779 5776 5774 5771 5768 5766 5763 5761 5759 5758 5756
5843 5841 5839 5838 5836 5834 5833 5833 5831 5830 5828 5827 5825 5822 5820 5818 5815 5813 5811 5808 5806 5804 5802 5800 5798 5796 5794 5791 5787 5784 5781 5778 5775 5772 5770 5767 5765 5762 5760 5758 5756 5754 5752 5750
5841 5839 5837 5835 5834 5832 5831 5830 5828 5826 5824 5823 5821 5818 5817 5814 5811 5808 5806 5803 5801 5799 5797 5795 5793 5791 5788 5785 5781 5778 5775 5772 5769 5766 5763 5761 5758 5756 5754 5752 5750 5748 5746 5745
5840 5838 5835 5833 5831 5829 5828 5827 5825 5823 5820 5819 5817 5814 5813 5809 5806 5803 5801 5798 5796 5793 5791 5789 5787 5784 5782 5779 5775 5772 5768 5765 5762 5760 5757 5755 5752 5750 5748 5747 5745 5743 5741 5740
5838 5836 5834 5831 5829 5827 5825 5823 5822 5819 5816 5815 5813 5811 5808 5805 5802 5799 5796 5794 5791 5789 5786 5783 5781 5778 5775 5772 5769 5766 5762 5759 5756 5753 5751 5749 5746 5744 5743 5741 5740 5738 5737 5735
5836 5834 5832 5830 5827 5825 5823 5821 5819 5816 5813 5811 5809 5807 5805 5802 5799 5796 5792 5790 5787 5784 5781 5778 5775 5772 5769 5766 5763 5760 5756 5753 5750 5747 5745 5743 5741 5739 5737 5736 5735 5733 5732 5730
5834 5832 5830 5828 5825 5823 5821 5819 5817 5814 5811 5809 5805 5806 5802 5798 5795 5792 5789 5786 5783 5779 5776 5773 5770 5767 5763 5760 5757 5754 5750 5747 5744 5742 5739 5738 5736 5735 5733 5731 5730 5728 5726 5725
5832 5830 5827 5826 5824 5821 5819 5817 5814 5812 5809 5806 5803 5804 5798 5794 5791 5787 5785 5781 5778 5775 5771 5768 5765 5762 5759 5755 5752 5748 5745 5742 5740 5737 5736 5734 5733 5731 5729 5727 5725 5723 5722 5720
5829 5827 5825 5824 5823 5821 5817 5815 5812 5809 5807 5804 5801 5801 5794 5791 5787 5784 5781 5778 5774 5771 5767 5764 5760 5757 5754 5751 5747 5744 5741 5738 5736 5734 5732 5731 5729 5728 5726 5723 5721 5719 5717 5716
5827 5825 5823 5822 5819 5817 5815 5813 5810 5807 5804 5801 5798 5796 5792 5788 5785 5781 5778 5775 5771 5767 5763 5760 5756 5753 5750 5746 5743 5740 5738 5735 5733 5731 5730 5728 5727 5725 5722 5720 5718 5716 5714 5712
5824 5822 5820 5818 5816 5814 5812 5810 5808 5805 5802 5799 5796 5792 5789 5785 5781 5778 5775 5771 5768 5764 5760 5757 5753 5750 5747 5744 5741 5738 5735 5733 5731 5729 5727 5725 5724 5722 5720 5718 5716 5713 5711 5708
5821 5819 5817 5816 5814 5812 5810 5807 5805 5802 5799 5796 5793 5790 5786 5782 5778 5775 5772 5768 5765 5761 5758 5754 5751 5748 5744 5741 5738 5736 5733 5731 5729 5727 5725 5723 5721 5719 5717 5715 5713 5710 5708 5705
5819 5817 5815 5813 5811 5809 5807 5804 5801 5799 5796 5793 5789 5787 5783 5779 5776 5772 5768 5765 5762 5759 5755 5752 5749 5746 5743 5740 5737 5734 5732 5730 5728 5726 5724 5722 5720 5717 5715 5713 5710 5707 5705 5702
5816 5813 5811 5809 5808 5805 5805 5800 5798 5795 5793 5789 5786 5783 5779 5776 5773 5769 5765 5762 5759 5756 5753 5749 5746 5744 5741 5738 5736 5733 5731 5729 5726 5724 5722 5720 5718 5715 5713 5710 5708 5705 5702 5699
5812 5810 5808 5806 5803 5801 5800 5796 5793 5791 5789 5785 5782 5779 5776 5773 5770 5767 5763 5759 5756 5753 5750 5747 5744 5741 5739 5736 5734 5732 5730 5727 5725 5723 5721 5718 5716 5713 5711 5708 5706 5703 5700 5697
5809 5807 5805 5802 5799 5797 5796 5793 5789 5788 5785 5781 5778 5775 5772 5769 5766 5764 5760 5757 5754 5751 5748 5745 5742 5740 5737 5735 5733 5731 5729 5726 5724 5721 5719 5717 5714 5712 5709 5707 5704 5701 5698 5694
5805 5803 5800 5798 5795 5793 5791 5788 5786 5784 5782 5777 5774 5771 5768 5765 5762 5760 5757 5754 5751 5749 5746 5744 5741 5738 5736 5734 5732 5730 5727 5725 5723 5720 5718 5715 5713 5710 5708 5705 5702 5699 5696 5692
5801 5799 5796 5794 5792 5791 5787 5784 5782 5780 5776 5773 5770 5767 5764 5762 5759 5756 5754 5751 5748 5746 5744 5742 5740 5738 5735 5733 5731 5728 5726 5724 5721 5719 5716 5714 5712 5709 5706 5703 5700 5697 5694 5690
5796 5795 5792 5790 5789 5785 5782 5779 5777 5774 5772 5769 5766 5763 5761 5758 5756 5754 5751 5749 5746 5744 5742 5740 5738 5736 5734 5732 5729 5727 5725 5723 5721 5718 5716 5713 5710 5708 5705 5702 5698 5695 5691 5688
5792 5789 5787 5785 5783 5780 5777 5775 5772 5770 5767 5765 5762 5760 5757 5755 5753 5751 5749 5747 5745 5742 5741 5739 5737 5735 5733 5731 5728 5726 5724 5722 5720 5717 5715 5712 5709 5706 5703 5700 5697 5693 5689 5685
5786 5784 5782 5779 5778 5775 5773 5770 5768 5766 5763 5761 5759 5756 5754 5752 5751 5749 5747 5745 5743 5741 5739 5737 5736 5734 5732 5730 5727 5725 5723 5721 5719 5716 5714 5711 5708 5705 5702 5698 5694 5690 5686 5682
5780 5778 5776 5774 5772 5770 5768 5766 5763 5761 5759 5757 5755 5753 5750 5749 5747 5746 5745 5743 5741 5739 5738 5736 5734 5732 5730 5728 5726 5724 5722 5720 5717 5715 5712 5710 5707 5703 5700 5696 5692 5687 5683 5679